Location: Killam
(52.7910°N, 111.8608°W)
Time: 15:11:54
(UTC+00:00)

Injun/Solrad 3 - Pass Details

Date: 16 February 2026
Orbit: 872 x 984 km, 66.8° (Epoch: 7 March)

Event Time Altitude Azimuth Distance (km) Brightness Sun altitude
Rises 04:06:26 0° 319° (NW) 3,562 11.8 -31.3°
Reaches altitude 10° 04:08:59 10° 314° (NW) 2,633 11.0 -31.6°
Maximum altitude 04:14:52 50° 241° (WSW) 1,184 8.5 -32.5°
Enters shadow 04:15:02 50° 236° (SW) 1,186 8.5 -32.5°
